Time,TemperatureF,DewpointF,PressureIn,WindDirection,WindDirectionDegrees,WindSpeedMPH,WindSpeedGustMPH,Humidity,HourlyPrecipIn,Conditions,Clouds,dailyrainin,SoftwareType,DateUTC
2014-01-01 00:00:00,42.2,30.5,30.12,NE,35,0.0,0.0,63,0.00,,---,0.00,VWS V15.00,2014-01-01 07:00:00,
2014-01-01 00:05:00,41.8,30.5,30.12,NE,35,0.0,0.0,64,0.00,,---,0.00,VWS V15.00,2014-01-01 07:05:00,
2014-01-01 00:10:00,41.4,30.5,30.12,NE,35,0.0,0.0,65,0.00,,---,0.00,VWS V15.00,2014-01-01 07:10:00,
2014-01-01 00:15:00,41.1,30.2,30.12,NE,35,0.0,0.0,65,0.00,,---,0.00,VWS V15.00,2014-01-01 07:15:00,
2014-01-01 00:20:00,40.8,30.3,30.12,NE,35,0.0,0.0,66,0.00,,---,0.00,VWS V15.00,2014-01-01 07:20:00,
2014-01-01 00:22:00,40.7,30.2,30.12,NE,35,0.0,0.0,66,0.00,,---,0.00,VWS V15.00,2014-01-01 07:22:00,
2014-01-01 00:27:00,40.5,30.4,30.13,NE,35,0.0,0.0,67,0.00,,---,0.00,VWS V15.00,2014-01-01 07:27:00,
2014-01-01 00:32:00,40.4,30.3,30.12,NE,35,0.0,0.0,67,0.00,,---,0.00,VWS V15.00,2014-01-01 07:32:00,
2014-01-01 00:37:00,40.3,30.2,30.12,NE,35,0.0,0.0,67,0.00,,---,0.00,VWS V15.00,2014-01-01 07:37:00,
2014-01-01 00:42:00,40.3,30.6,30.13,NE,35,0.0,0.0,68,0.00,,---,0.00,VWS V15.00,2014-01-01 07:42:00,
2014-01-01 00:47:00,40.3,30.2,30.12,NE,35,0.0,0.0,67,0.00,,---,0.00,VWS V15.00,2014-01-01 07:47:00,
2014-01-01 00:52:00,40.4,30.3,30.13,NE,35,0.0,0.0,67,0.00,,---,0.00,VWS V15.00,2014-01-01 07:52:00,
2014-01-01 00:57:00,40.3,30.2,30.13,NE,35,0.0,0.0,67,0.00,,---,0.00,VWS V15.00,2014-01-01 07:57:00,
2014-01-01 01:00:00,40.2,30.1,30.12,NE,35,0.0,0.0,67,0.00,,---,0.00,VWS V15.00,2014-01-01 08:00:00,
2014-01-01 01:05:00,39.8,29.8,30.12,NE,35,0.0,0.0,67,0.00,,---,0.00,VWS V15.00,2014-01-01 08:05:00,
2014-01-01 01:10:00,39.5,29.8,30.12,NE,35,0.0,0.0,68,0.00,,---,0.00,VWS V15.00,2014-01-01 08:10:00,
2014-01-01 01:15:00,39.4,30.1,30.12,NE,35,0.0,0.0,69,0.00,,---,0.00,VWS V15.00,2014-01-01 08:15:00,
2014-01-01 01:20:00,39.4,30.1,30.12,NE,35,0.0,0.0,69,0.00,,---,0.00,VWS V15.00,2014-01-01 08:20:00,
2014-01-01 01:25:00,39.3,30.0,30.12,NE,35,0.0,0.0,69,0.00,,---,0.00,VWS V15.00,2014-01-01 08:25:00,
2014-01-01 01:30:00,39.2,29.9,30.12,NE,35,0.0,0.0,69,0.00,,---,0.00,VWS V15.00,2014-01-01 08:30:00,
2014-01-01 01:35:00,38.9,30.0,30.12,NE,35,0.0,0.0,70,0.00,,---,0.00,VWS V15.00,2014-01-01 08:35:00,
2014-01-01 01:40:00,38.8,29.9,30.13,NE,35,0.0,0.0,70,0.00,,---,0.00,VWS V15.00,2014-01-01 08:40:00,
2014-01-01 01:45:00,38.5,29.9,30.13,NE,35,0.0,0.0,71,0.00,,---,0.00,VWS V15.00,2014-01-01 08:45:00,
2014-01-01 01:50:00,38.3,29.7,30.13,NE,35,0.0,0.0,71,0.00,,---,0.00,VWS V15.00,2014-01-01 08:50:00,
2014-01-01 01:55:00,38.0,29.8,30.13,NE,35,0.0,0.0,72,0.00,,---,0.00,VWS V15.00,2014-01-01 08:55:00,
2014-01-01 02:00:00,38.2,30.0,30.13,NE,35,0.0,0.0,72,0.00,,---,0.00,VWS V15.00,2014-01-01 09:00:00,
2014-01-01 02:05:00,38.9,30.3,30.13,NE,35,0.0,0.0,71,0.00,,---,0.00,VWS V15.00,2014-01-01 09:05:00,
2014-01-01 02:10:00,39.4,29.7,30.13,NE,35,0.0,0.0,68,0.00,,---,0.00,VWS V15.00,2014-01-01 09:10:00,
2014-01-01 02:15:00,39.4,29.7,30.13,NE,35,0.0,0.0,68,0.00,,---,0.00,VWS V15.00,2014-01-01 09:15:00,
2014-01-01 02:20:00,39.5,29.5,30.13,NE,35,0.0,0.0,67,0.00,,---,0.00,VWS V15.00,2014-01-01 09:20:00,
2014-01-01 02:25:00,39.5,29.5,30.13,NE,35,0.0,0.0,67,0.00,,---,0.00,VWS V15.00,2014-01-01 09:25:00,
2014-01-01 02:30:00,39.3,29.3,30.13,NE,35,0.0,0.0,67,0.00,,---,0.00,VWS V15.00,2014-01-01 09:30:00,
2014-01-01 02:35:00,39.1,29.5,30.13,NE,35,0.0,0.0,68,0.00,,---,0.00,VWS V15.00,2014-01-01 09:35:00,
2014-01-01 02:40:00,38.8,29.5,30.14,NE,35,0.0,0.0,69,0.00,,---,0.00,VWS V15.00,2014-01-01 09:40:00,
2014-01-01 02:45:00,38.7,29.8,30.13,NE,35,0.0,0.0,70,0.00,,---,0.00,VWS V15.00,2014-01-01 09:45:00,
2014-01-01 02:50:00,38.4,29.5,30.13,NE,35,0.0,0.0,70,0.00,,---,0.00,VWS V15.00,2014-01-01 09:50:00,
2014-01-01 02:55:00,38.3,29.7,30.13,NE,35,0.0,0.0,71,0.00,,---,0.00,VWS V15.00,2014-01-01 09:55:00,
2014-01-01 03:00:00,38.1,29.5,30.13,NE,35,0.0,0.0,71,0.00,,---,0.00,VWS V15.00,2014-01-01 10:00:00,
2014-01-01 03:05:00,37.9,29.7,30.13,NE,35,0.0,0.0,72,0.00,,---,0.00,VWS V15.00,2014-01-01 10:05:00,
2014-01-01 03:10:00,37.8,29.9,30.12,NE,35,0.0,0.0,73,0.00,,---,0.00,VWS V15.00,2014-01-01 10:10:00,
2014-01-01 03:15:00,37.5,29.6,30.13,NE,35,0.0,0.0,73,0.00,,---,0.00,VWS V15.00,2014-01-01 10:15:00,
2014-01-01 03:20:00,37.4,29.5,30.12,NE,35,0.0,0.0,73,0.00,,---,0.00,VWS V15.00,2014-01-01 10:20:00,
2014-01-01 03:25:00,37.1,29.3,30.12,NE,35,0.0,0.0,73,0.00,,---,0.00,VWS V15.00,2014-01-01 10:25:00,
2014-01-01 03:30:00,36.8,29.3,30.12,NE,35,0.0,0.0,74,0.00,,---,0.00,VWS V15.00,2014-01-01 10:30:00,
2014-01-01 03:35:00,36.9,29.7,30.12,NE,35,0.0,0.0,75,0.00,,---,0.00,VWS V15.00,2014-01-01 10:35:00,
2014-01-01 03:40:00,37.0,29.8,30.12,NE,35,0.0,0.0,75,0.00,,---,0.00,VWS V15.00,2014-01-01 10:40:00,
2014-01-01 03:45:00,37.0,29.5,30.12,NE,35,0.0,0.0,74,0.00,,---,0.00,VWS V15.00,2014-01-01 10:45:00,
2014-01-01 03:50:00,36.8,29.3,30.12,NE,35,0.0,0.0,74,0.00,,---,0.00,VWS V15.00,2014-01-01 10:50:00,
2014-01-01 03:55:00,36.6,29.1,30.12,NE,35,0.0,0.0,74,0.00,,---,0.00,VWS V15.00,2014-01-01 10:55:00,
2014-01-01 04:00:00,36.5,29.3,30.12,NE,35,0.0,0.0,75,0.00,,---,0.00,VWS V15.00,2014-01-01 11:00:00,
2014-01-01 04:05:00,36.3,29.1,30.12,NE,35,0.0,0.0,75,0.00,,---,0.00,VWS V15.00,2014-01-01 11:05:00,
2014-01-01 04:10:00,36.0,28.9,30.12,NE,35,0.0,0.0,75,0.00,,---,0.00,VWS V15.00,2014-01-01 11:10:00,
2014-01-01 04:15:00,35.8,29.0,30.13,NE,35,0.0,0.0,76,0.00,,---,0.00,VWS V15.00,2014-01-01 11:15:00,
2014-01-01 04:20:00,35.6,29.1,30.13,NE,35,0.0,0.0,77,0.00,,---,0.00,VWS V15.00,2014-01-01 11:20:00,
2014-01-01 04:25:00,35.6,29.1,30.12,NE,35,0.0,0.0,77,0.00,,---,0.00,VWS V15.00,2014-01-01 11:25:00,
2014-01-01 04:30:00,35.6,29.1,30.12,NE,35,0.0,0.0,77,0.00,,---,0.00,VWS V15.00,2014-01-01 11:30:00,
2014-01-01 04:35:00,35.7,29.2,30.12,NE,35,0.0,0.0,77,0.00,,---,0.00,VWS V15.00,2014-01-01 11:35:00,
2014-01-01 04:40:00,35.7,29.2,30.12,NE,35,0.0,0.0,77,0.00,,---,0.00,VWS V15.00,2014-01-01 11:40:00,
2014-01-01 04:45:00,35.7,28.9,30.12,NE,35,0.0,0.0,76,0.00,,---,0.00,VWS V15.00,2014-01-01 11:45:00,
2014-01-01 04:50:00,35.7,29.2,30.12,NE,35,0.0,0.0,77,0.00,,---,0.00,VWS V15.00,2014-01-01 11:50:00,
2014-01-01 04:55:00,35.7,28.9,30.12,NE,35,0.0,0.0,76,0.00,,---,0.00,VWS V15.00,2014-01-01 11:55:00,
2014-01-01 05:00:00,35.6,28.8,30.12,NE,35,0.0,0.0,76,0.00,,---,0.00,VWS V15.00,2014-01-01 12:00:00,
2014-01-01 05:05:00,35.7,29.2,30.12,NE,35,0.0,0.0,77,0.00,,---,0.00,VWS V15.00,2014-01-01 12:05:00,
2014-01-01 05:10:00,36.1,29.6,30.12,NE,35,0.0,0.0,77,0.00,,---,0.00,VWS V15.00,2014-01-01 12:10:00,
2014-01-01 05:15:00,36.3,29.8,30.12,NE,35,0.0,0.0,77,0.00,,---,0.00,VWS V15.00,2014-01-01 12:15:00,
2014-01-01 05:20:00,36.5,29.7,30.12,NE,35,0.0,0.0,76,0.00,,---,0.00,VWS V15.00,2014-01-01 12:20:00,
2014-01-01 05:25:00,36.9,30.0,30.12,NE,35,0.0,0.0,76,0.00,,---,0.00,VWS V15.00,2014-01-01 12:25:00,
2014-01-01 05:30:00,37.0,29.8,30.12,NE,35,0.0,0.0,75,0.00,,---,0.00,VWS V15.00,2014-01-01 12:30:00,
2014-01-01 05:35:00,37.1,29.6,30.12,NE,35,0.0,0.0,74,0.00,,---,0.00,VWS V15.00,2014-01-01 12:35:00,
2014-01-01 05:40:00,37.0,29.5,30.12,NE,35,0.0,0.0,74,0.00,,---,0.00,VWS V15.00,2014-01-01 12:40:00,
2014-01-01 05:45:00,36.9,29.4,30.12,NE,35,0.0,0.0,74,0.00,,---,0.00,VWS V15.00,2014-01-01 12:45:00,
2014-01-01 05:50:00,36.8,29.3,30.12,NE,35,0.0,0.0,74,0.00,,---,0.00,VWS V15.00,2014-01-01 12:50:00,
2014-01-01 05:55:00,36.6,29.1,30.12,NE,35,0.0,0.0,74,0.00,,---,0.00,VWS V15.00,2014-01-01 12:55:00,
2014-01-01 05:59:00,36.3,28.8,30.12,NE,35,0.0,0.0,74,0.00,,---,0.00,VWS V15.00,2014-01-01 12:59:00,
2014-01-01 06:04:00,36.0,28.9,30.13,NE,35,0.0,0.0,75,0.00,,---,0.00,VWS V15.00,2014-01-01 13:04:00,
2014-01-01 06:09:00,35.6,28.8,30.13,NE,35,0.0,0.0,76,0.00,,---,0.00,VWS V15.00,2014-01-01 13:09:00,
2014-01-01 06:14:00,35.2,28.4,30.13,NE,35,0.0,0.0,76,0.00,,---,0.00,VWS V15.00,2014-01-01 13:14:00,
2014-01-01 06:19:00,35.0,28.2,30.13,NE,35,0.0,0.0,76,0.00,,---,0.00,VWS V15.00,2014-01-01 13:19:00,
2014-01-01 06:24:00,34.9,28.4,30.13,NE,35,0.0,0.0,77,0.00,,---,0.00,VWS V15.00,2014-01-01 13:24:00,
2014-01-01 06:29:00,35.1,28.6,30.13,NE,35,0.0,0.0,77,0.00,,---,0.00,VWS V15.00,2014-01-01 13:29:00,
2014-01-01 06:34:00,35.0,28.2,30.13,NE,35,0.0,0.0,76,0.00,,---,0.00,VWS V15.00,2014-01-01 13:34:00,
2014-01-01 06:39:00,34.9,28.4,30.13,NE,35,0.0,0.0,77,0.00,,---,0.00,VWS V15.00,2014-01-01 13:39:00,
2014-01-01 06:44:00,34.8,28.3,30.14,NE,35,0.0,0.0,77,0.00,,---,0.00,VWS V15.00,2014-01-01 13:44:00,
2014-01-01 06:49:00,34.9,28.4,30.14,NE,35,0.0,0.0,77,0.00,,---,0.00,VWS V15.00,2014-01-01 13:49:00,
2014-01-01 06:54:00,35.0,28.5,30.14,NE,35,0.0,0.0,77,0.00,,---,0.00,VWS V15.00,2014-01-01 13:54:00,
2014-01-01 06:59:00,34.9,28.4,30.13,NE,35,0.0,0.0,77,0.00,,---,0.00,VWS V15.00,2014-01-01 13:59:00,
2014-01-01 07:04:00,34.8,28.3,30.13,NE,35,0.0,0.0,77,0.00,,---,0.00,VWS V15.00,2014-01-01 14:04:00,
2014-01-01 07:09:00,34.7,28.5,30.14,NE,35,0.0,0.0,78,0.00,,---,0.00,VWS V15.00,2014-01-01 14:09:00,
2014-01-01 07:14:00,34.5,28.4,30.14,NE,35,0.0,0.0,78,0.00,,---,0.00,VWS V15.00,2014-01-01 14:14:00,
2014-01-01 07:19:00,34.4,28.6,30.14,NE,35,0.0,0.0,79,0.00,,---,0.00,VWS V15.00,2014-01-01 14:19:00,
2014-01-01 07:24:00,34.2,28.4,30.14,NE,35,0.0,0.0,79,0.00,,---,0.00,VWS V15.00,2014-01-01 14:24:00,
2014-01-01 07:29:00,34.1,28.3,30.14,NE,35,0.0,0.0,79,0.00,,---,0.00,VWS V15.00,2014-01-01 14:29:00,
2014-01-01 07:34:00,33.8,28.0,30.14,NE,35,0.0,0.0,79,0.00,,---,0.00,VWS V15.00,2014-01-01 14:34:00,
2014-01-01 07:39:00,33.9,28.4,30.14,NE,35,0.0,0.0,80,0.00,,---,0.00,VWS V15.00,2014-01-01 14:39:00,
2014-01-01 07:44:00,34.1,28.6,30.15,NE,35,0.0,0.0,80,0.00,,---,0.00,VWS V15.00,2014-01-01 14:44:00,
2014-01-01 07:49:00,34.4,28.9,30.15,NE,35,0.0,0.0,80,0.00,,---,0.00,VWS V15.00,2014-01-01 14:49:00,
2014-01-01 07:54:00,35.1,29.6,30.15,NE,35,0.0,0.0,80,0.00,,---,0.00,VWS V15.00,2014-01-01 14:54:00,
2014-01-01 07:59:00,35.6,30.0,30.15,NE,35,0.0,0.0,80,0.00,,---,0.00,VWS V15.00,2014-01-01 14:59:00,
2014-01-01 08:04:00,36.9,31.0,30.15,NE,35,0.0,0.0,79,0.00,,---,0.00,VWS V15.00,2014-01-01 15:04:00,
2014-01-01 08:09:00,38.9,31.0,30.16,NE,35,0.0,0.0,73,0.00,,---,0.00,VWS V15.00,2014-01-01 15:09:00,
2014-01-01 08:14:00,40.5,31.5,30.16,NE,35,0.0,0.0,70,0.00,,---,0.00,VWS V15.00,2014-01-01 15:14:00,
2014-01-01 08:19:00,41.9,31.8,30.16,NE,35,0.0,0.0,67,0.00,,---,0.00,VWS V15.00,2014-01-01 15:19:00,
2014-01-01 08:24:00,43.2,31.5,30.16,NE,35,0.0,0.0,63,0.00,,---,0.00,VWS V15.00,2014-01-01 15:24:00,
2014-01-01 08:29:00,44.6,32.0,30.16,NE,35,0.0,0.0,61,0.00,,---,0.00,VWS V15.00,2014-01-01 15:29:00,
2014-01-01 08:34:00,45.8,31.9,30.16,NE,35,0.0,0.0,58,0.00,,---,0.00,VWS V15.00,2014-01-01 15:34:00,
2014-01-01 08:39:00,47.0,30.3,30.16,NE,35,0.0,0.0,52,0.00,,---,0.00,VWS V15.00,2014-01-01 15:39:00,
2014-01-01 08:44:00,47.6,29.4,30.16,NE,35,0.0,1.0,49,0.00,,---,0.00,VWS V15.00,2014-01-01 15:44:00,
2014-01-01 08:49:00,48.4,29.1,30.16,North,11,0.0,0.0,47,0.00,,---,0.00,VWS V15.00,2014-01-01 15:49:00,
2014-01-01 08:54:00,48.5,28.7,30.16,NNW,340,0.0,1.0,46,0.00,,---,0.00,VWS V15.00,2014-01-01 15:54:00,
2014-01-01 08:59:00,48.5,28.7,30.16,NNW,340,0.0,0.0,46,0.00,,---,0.00,VWS V15.00,2014-01-01 15:59:00,
2014-01-01 09:04:00,48.8,29.5,30.16,NNW,340,0.0,0.0,47,0.00,,---,0.00,VWS V15.00,2014-01-01 16:04:00,
2014-01-01 09:09:00,49.3,29.4,30.16,NNW,340,0.0,0.0,46,0.00,,---,0.00,VWS V15.00,2014-01-01 16:09:00,
2014-01-01 09:14:00,49.9,30.0,30.16,NNW,340,0.0,0.0,46,0.00,,---,0.00,VWS V15.00,2014-01-01 16:14:00,
2014-01-01 09:19:00,50.9,29.8,30.16,NNW,340,0.0,0.0,44,0.00,,---,0.00,VWS V15.00,2014-01-01 16:19:00,
2014-01-01 09:24:00,51.8,30.0,30.16,NNW,340,0.0,0.0,43,0.00,,---,0.00,VWS V15.00,2014-01-01 16:24:00,
2014-01-01 09:29:00,51.8,29.5,30.17,SSW,210,0.0,1.0,42,0.00,,---,0.00,VWS V15.00,2014-01-01 16:29:00,
2014-01-01 09:34:00,51.6,29.9,30.17,SSW,210,0.0,1.0,43,0.00,,---,0.00,VWS V15.00,2014-01-01 16:34:00,
2014-01-01 09:39:00,51.5,29.2,30.17,SSW,211,0.0,1.0,42,0.00,,---,0.00,VWS V15.00,2014-01-01 16:39:00,
2014-01-01 09:44:00,51.8,28.9,30.17,SSW,211,0.0,2.0,41,0.00,,---,0.00,VWS V15.00,2014-01-01 16:44:00,
2014-01-01 09:49:00,52.6,30.2,30.17,SSW,210,0.0,0.0,42,0.00,,---,0.00,VWS V15.00,2014-01-01 16:49:00,
2014-01-01 09:54:00,53.0,29.3,30.17,SSW,210,0.0,1.0,40,0.00,,---,0.00,VWS V15.00,2014-01-01 16:54:00,
2014-01-01 09:59:00,53.0,29.3,30.17,SSW,210,0.0,1.0,40,0.00,,---,0.00,VWS V15.00,2014-01-01 16:59:00,
2014-01-01 10:04:00,53.1,28.8,30.17,SSW,211,0.0,1.0,39,0.00,,---,0.00,VWS V15.00,2014-01-01 17:04:00,
2014-01-01 10:09:00,53.8,28.8,30.17,SSW,211,0.0,1.0,38,0.00,,---,0.00,VWS V15.00,2014-01-01 17:09:00,
2014-01-01 10:14:00,54.9,30.4,30.17,SSW,211,0.0,0.0,39,0.00,,---,0.00,VWS V15.00,2014-01-01 17:14:00,
2014-01-01 10:19:00,55.3,29.5,30.17,SSW,211,0.0,1.0,37,0.00,,---,0.00,VWS V15.00,2014-01-01 17:19:00,
2014-01-01 10:24:00,55.9,28.7,30.17,SSW,210,0.0,1.0,35,0.00,,---,0.00,VWS V15.00,2014-01-01 17:24:00,
2014-01-01 10:29:00,56.5,28.5,30.17,SSW,210,0.0,1.0,34,0.00,,---,0.00,VWS V15.00,2014-01-01 17:29:00,
2014-01-01 10:34:00,57.1,28.3,30.17,SSW,210,0.0,1.0,33,0.00,,---,0.00,VWS V15.00,2014-01-01 17:34:00,
2014-01-01 10:39:00,57.2,29.1,30.17,SSW,210,0.0,1.0,34,0.00,,---,0.00,VWS V15.00,2014-01-01 17:39:00,
2014-01-01 10:44:00,57.9,28.2,30.17,SSW,211,0.0,0.0,32,0.00,,---,0.00,VWS V15.00,2014-01-01 17:44:00,
2014-01-01 10:49:00,58.2,29.3,30.17,SSW,210,0.0,3.0,33,0.00,,---,0.00,VWS V15.00,2014-01-01 17:49:00,
2014-01-01 10:54:00,58.9,29.1,30.17,SSW,210,0.0,0.0,32,0.00,,---,0.00,VWS V15.00,2014-01-01 17:54:00,
2014-01-01 10:59:00,59.1,29.3,30.17,SSW,210,0.0,1.0,32,0.00,,---,0.00,VWS V15.00,2014-01-01 17:59:00,
2014-01-01 11:04:00,59.7,29.0,30.16,SSW,210,0.0,0.0,31,0.00,,---,0.00,VWS V15.00,2014-01-01 18:04:00,
2014-01-01 11:09:00,59.6,28.1,30.16,SSW,210,0.0,1.0,30,0.00,,---,0.00,VWS V15.00,2014-01-01 18:09:00,
2014-01-01 11:14:00,60.2,29.5,30.16,SSW,211,0.0,0.0,31,0.00,,---,0.00,VWS V15.00,2014-01-01 18:14:00,
2014-01-01 11:19:00,60.7,29.1,30.16,SSW,210,0.0,1.0,30,0.00,,---,0.00,VWS V15.00,2014-01-01 18:19:00,
2014-01-01 11:24:00,61.3,28.8,30.16,SSW,211,0.0,1.0,29,0.00,,---,0.00,VWS V15.00,2014-01-01 18:24:00,
2014-01-01 11:29:00,61.3,27.9,30.16,SSW,211,0.0,0.0,28,0.00,,---,0.00,VWS V15.00,2014-01-01 18:29:00,
2014-01-01 11:34:00,61.9,28.5,30.15,SSW,211,0.0,1.0,28,0.00,,---,0.00,VWS V15.00,2014-01-01 18:34:00,
2014-01-01 11:39:00,62.1,28.6,30.15,SSW,210,0.0,1.0,28,0.00,,---,0.00,VWS V15.00,2014-01-01 18:39:00,
2014-01-01 11:44:00,62.4,28.0,30.15,SSW,211,0.0,1.0,27,0.00,,---,0.00,VWS V15.00,2014-01-01 18:44:00,
2014-01-01 11:49:00,63.0,27.6,30.14,SSW,211,0.0,1.0,26,0.00,,---,0.00,VWS V15.00,2014-01-01 18:49:00,
2014-01-01 11:54:00,63.4,27.9,30.14,SSW,210,0.0,3.0,26,0.00,,---,0.00,VWS V15.00,2014-01-01 18:54:00,
2014-01-01 11:59:00,63.4,27.0,30.13,SSW,210,0.0,3.0,25,0.00,,---,0.00,VWS V15.00,2014-01-01 18:59:00,
2014-01-01 12:04:00,64.0,26.5,30.13,SSW,211,0.0,3.0,24,0.00,,---,0.00,VWS V15.00,2014-01-01 19:04:00,
2014-01-01 12:09:00,64.2,25.7,30.13,SSW,210,0.0,3.0,23,0.00,,---,0.00,VWS V15.00,2014-01-01 19:09:00,
2014-01-01 12:14:00,64.8,26.2,30.12,SSW,212,0.0,4.0,23,0.00,,---,0.00,VWS V15.00,2014-01-01 19:14:00,
2014-01-01 12:19:00,64.4,26.9,30.12,WSW,238,4.0,4.0,24,0.00,,---,0.00,VWS V15.00,2014-01-01 19:19:00,
2014-01-01 12:24:00,64.4,25.8,30.11,SSW,213,2.0,3.0,23,0.00,,---,0.00,VWS V15.00,2014-01-01 19:24:00,
2014-01-01 12:29:00,64.8,26.2,30.11,SW,219,4.0,5.0,23,0.00,,---,0.00,VWS V15.00,2014-01-01 19:29:00,
2014-01-01 12:34:00,65.4,25.6,30.11,SW,227,0.0,2.0,22,0.00,,---,0.00,VWS V15.00,2014-01-01 19:34:00,
2014-01-01 12:39:00,65.9,26.0,30.10,SSW,210,1.0,4.0,22,0.00,,---,0.00,VWS V15.00,2014-01-01 19:39:00,
2014-01-01 12:44:00,65.8,24.8,30.10,West,278,0.0,3.0,21,0.00,,---,0.00,VWS V15.00,2014-01-01 19:44:00,
2014-01-01 12:49:00,66.5,26.5,30.10,West,278,0.0,1.0,22,0.00,,---,0.00,VWS V15.00,2014-01-01 19:49:00,
2014-01-01 12:54:00,66.6,25.5,30.09,SW,225,0.0,3.0,21,0.00,,---,0.00,VWS V15.00,2014-01-01 19:54:00,
2014-01-01 12:59:00,66.6,25.5,30.09,South,184,1.0,5.0,21,0.00,,---,0.00,VWS V15.00,2014-01-01 19:59:00,
2014-01-01 13:04:00,67.3,26.1,30.09,WNW,302,0.0,3.0,21,0.00,,---,0.00,VWS V15.00,2014-01-01 20:04:00,
2014-01-01 13:09:00,67.5,25.0,30.09,West,264,0.0,3.0,20,0.00,,---,0.00,VWS V15.00,2014-01-01 20:09:00,
2014-01-01 13:14:00,67.4,25.0,30.08,SW,221,3.0,3.0,20,0.00,,---,0.00,VWS V15.00,2014-01-01 20:14:00,
2014-01-01 13:19:00,67.9,25.4,30.08,SW,222,0.0,3.0,20,0.00,,---,0.00,VWS V15.00,2014-01-01 20:19:00,
2014-01-01 13:24:00,67.6,25.1,30.08,SSW,207,0.0,5.0,20,0.00,,---,0.00,VWS V15.00,2014-01-01 20:24:00,
2014-01-01 13:29:00,68.2,25.6,30.08,WSW,240,0.0,4.0,20,0.00,,---,0.00,VWS V15.00,2014-01-01 20:29:00,
2014-01-01 13:34:00,68.0,25.5,30.08,SSW,192,0.0,3.0,20,0.00,,---,0.00,VWS V15.00,2014-01-01 20:34:00,
2014-01-01 13:39:00,68.8,26.1,30.07,SW,229,0.0,2.0,20,0.00,,---,0.00,VWS V15.00,2014-01-01 20:39:00,
2014-01-01 13:44:00,68.3,25.7,30.07,SW,218,0.0,5.0,20,0.00,,---,0.00,VWS V15.00,2014-01-01 20:44:00,
2014-01-01 13:49:00,68.5,25.9,30.07,WSW,243,0.0,3.0,20,0.00,,---,0.00,VWS V15.00,2014-01-01 20:49:00,
2014-01-01 13:54:00,68.7,26.0,30.07,SW,217,0.0,5.0,20,0.00,,---,0.00,VWS V15.00,2014-01-01 20:54:00,
2014-01-01 13:59:00,68.9,26.2,30.07,SSW,212,0.0,5.0,20,0.00,,---,0.00,VWS V15.00,2014-01-01 20:59:00,
2014-01-01 14:04:00,68.7,26.0,30.07,South,187,0.0,8.0,20,0.00,,---,0.00,VWS V15.00,2014-01-01 21:04:00,
2014-01-01 14:09:00,68.8,26.1,30.07,SW,223,0.0,5.0,20,0.00,,---,0.00,VWS V15.00,2014-01-01 21:09:00,
2014-01-01 14:14:00,69.3,26.5,30.07,West,271,3.0,5.0,20,0.00,,---,0.00,VWS V15.00,2014-01-01 21:14:00,
2014-01-01 14:19:00,69.4,25.4,30.07,West,265,0.0,6.0,19,0.00,,---,0.00,VWS V15.00,2014-01-01 21:19:00,
2014-01-01 14:24:00,70.3,26.1,30.06,West,270,0.0,2.0,19,0.00,,---,0.00,VWS V15.00,2014-01-01 21:24:00,
2014-01-01 14:29:00,70.1,26.0,30.06,WSW,247,0.0,3.0,19,0.00,,---,0.00,VWS V15.00,2014-01-01 21:29:00,
2014-01-01 14:34:00,69.9,24.5,30.06,West,261,0.0,4.0,18,0.00,,---,0.00,VWS V15.00,2014-01-01 21:34:00,
2014-01-01 14:39:00,70.1,24.7,30.06,West,265,1.0,1.0,18,0.00,,---,0.00,VWS V15.00,2014-01-01 21:39:00,
2014-01-01 14:44:00,69.9,24.5,30.06,WNW,287,1.0,4.0,18,0.00,,---,0.00,VWS V15.00,2014-01-01 21:44:00,
2014-01-01 14:49:00,69.8,24.4,30.06,West,261,0.0,4.0,18,0.00,,---,0.00,VWS V15.00,2014-01-01 21:49:00,
2014-01-01 14:54:00,69.9,24.5,30.06,SW,229,0.0,4.0,18,0.00,,---,0.00,VWS V15.00,2014-01-01 21:54:00,
2014-01-01 14:59:00,69.7,25.6,30.06,WSW,250,0.0,6.0,19,0.00,,---,0.00,VWS V15.00,2014-01-01 21:59:00,
2014-01-01 15:04:00,70.0,24.6,30.06,West,268,7.0,7.0,18,0.00,,---,0.00,VWS V15.00,2014-01-01 22:04:00,
2014-01-01 15:09:00,70.2,24.7,30.06,WNW,284,0.0,3.0,18,0.00,,---,0.00,VWS V15.00,2014-01-01 22:09:00,
2014-01-01 15:14:00,70.7,25.1,30.06,WNW,288,0.0,1.0,18,0.00,,---,0.00,VWS V15.00,2014-01-01 22:14:00,
2014-01-01 15:19:00,70.1,24.7,30.06,WSW,257,0.0,5.0,18,0.00,,---,0.00,VWS V15.00,2014-01-01 22:19:00,
2014-01-01 15:24:00,70.0,24.6,30.06,WSW,246,0.0,3.0,18,0.00,,---,0.00,VWS V15.00,2014-01-01 22:24:00,
2014-01-01 15:29:00,70.0,24.6,30.06,SW,226,4.0,5.0,18,0.00,,---,0.00,VWS V15.00,2014-01-01 22:29:00,
2014-01-01 15:34:00,69.6,25.5,30.06,SSW,212,0.0,8.0,19,0.00,,---,0.00,VWS V15.00,2014-01-01 22:34:00,
2014-01-01 15:39:00,69.5,25.5,30.06,WSW,238,4.0,7.0,19,0.00,,---,0.00,VWS V15.00,2014-01-01 22:39:00,
2014-01-01 15:44:00,70.0,25.9,30.06,SW,235,0.0,6.0,19,0.00,,---,0.00,VWS V15.00,2014-01-01 22:44:00,
2014-01-01 15:49:00,70.0,25.9,30.06,WSW,243,0.0,5.0,19,0.00,,---,0.00,VWS V15.00,2014-01-01 22:49:00,
2014-01-01 15:54:00,69.9,25.8,30.06,SW,229,4.0,6.0,19,0.00,,---,0.00,VWS V15.00,2014-01-01 22:54:00,
2014-01-01 15:59:00,69.7,25.6,30.06,WSW,250,2.0,7.0,19,0.00,,---,0.00,VWS V15.00,2014-01-01 22:59:00,
2014-01-01 16:04:00,69.6,25.5,30.06,WSW,257,0.0,5.0,19,0.00,,---,0.00,VWS V15.00,2014-01-01 23:04:00,
2014-01-01 16:09:00,69.7,25.6,30.06,SSW,211,0.0,3.0,19,0.00,,---,0.00,VWS V15.00,2014-01-01 23:09:00,
2014-01-01 16:14:00,69.7,25.6,30.06,SW,229,0.0,4.0,19,0.00,,---,0.00,VWS V15.00,2014-01-01 23:14:00,
2014-01-01 16:19:00,69.4,25.4,30.06,SW,234,0.0,5.0,19,0.00,,---,0.00,VWS V15.00,2014-01-01 23:19:00,
2014-01-01 16:24:00,69.4,26.6,30.07,WSW,241,2.0,3.0,20,0.00,,---,0.00,VWS V15.00,2014-01-01 23:24:00,
2014-01-01 16:29:00,69.1,26.4,30.07,SW,230,0.0,5.0,20,0.00,,---,0.00,VWS V15.00,2014-01-01 23:29:00,
2014-01-01 16:34:00,69.0,26.3,30.07,WSW,249,1.0,3.0,20,0.00,,---,0.00,VWS V15.00,2014-01-01 23:34:00,
2014-01-01 16:39:00,68.7,27.2,30.07,West,272,0.0,3.0,21,0.00,,---,0.00,VWS V15.00,2014-01-01 23:39:00,
2014-01-01 16:44:00,68.3,28.0,30.07,West,275,1.0,4.0,22,0.00,,---,0.00,VWS V15.00,2014-01-01 23:44:00,
2014-01-01 16:49:00,67.9,27.7,30.07,WSW,244,0.0,5.0,22,0.00,,---,0.00,VWS V15.00,2014-01-01 23:49:00,
2014-01-01 16:54:00,67.4,28.4,30.07,West,273,0.0,3.0,23,0.00,,---,0.00,VWS V15.00,2014-01-01 23:54:00,
2014-01-01 16:58:00,66.9,29.0,30.07,West,268,0.0,2.0,24,0.00,,---,0.00,VWS V15.00,2014-01-01 23:58:00,
2014-01-01 17:03:00,66.4,28.5,30.07,WSW,257,0.0,3.0,24,0.00,,---,0.00,VWS V15.00,2014-01-02 00:03:00,
2014-01-01 17:08:00,65.9,29.1,30.07,WSW,257,0.0,0.0,25,0.00,,---,0.00,VWS V15.00,2014-01-02 00:08:00,
2014-01-01 17:13:00,65.6,29.8,30.07,WSW,252,0.0,3.0,26,0.00,,---,0.00,VWS V15.00,2014-01-02 00:13:00,
2014-01-01 17:18:00,65.3,29.6,30.07,WSW,252,0.0,1.0,26,0.00,,---,0.00,VWS V15.00,2014-01-02 00:18:00,
2014-01-01 17:23:00,64.8,30.1,30.07,WSW,252,1.0,1.0,27,0.00,,---,0.00,VWS V15.00,2014-01-02 00:23:00,
2014-01-01 17:28:00,64.1,30.4,30.08,WSW,252,0.0,1.0,28,0.00,,---,0.00,VWS V15.00,2014-01-02 00:28:00,
2014-01-01 17:33:00,63.5,30.7,30.08,WSW,252,0.0,0.0,29,0.00,,---,0.00,VWS V15.00,2014-01-02 00:33:00,
2014-01-01 17:38:00,62.9,31.0,30.08,WSW,252,0.0,0.0,30,0.00,,---,0.00,VWS V15.00,2014-01-02 00:38:00,
2014-01-01 17:43:00,62.3,30.5,30.08,WSW,252,0.0,0.0,30,0.00,,---,0.00,VWS V15.00,2014-01-02 00:43:00,
2014-01-01 17:48:00,61.6,30.7,30.08,WSW,252,0.0,0.0,31,0.00,,---,0.00,VWS V15.00,2014-01-02 00:48:00,
2014-01-01 17:53:00,61.0,31.0,30.08,WSW,252,0.0,0.0,32,0.00,,---,0.00,VWS V15.00,2014-01-02 00:53:00,
2014-01-01 17:58:00,60.3,31.1,30.09,WSW,252,0.0,1.0,33,0.00,,---,0.00,VWS V15.00,2014-01-02 00:58:00,
2014-01-01 18:03:00,59.4,31.8,30.09,WSW,252,0.0,0.0,35,0.00,,---,0.00,VWS V15.00,2014-01-02 01:03:00,
2014-01-01 18:08:00,58.3,31.5,30.09,WSW,252,0.0,0.0,36,0.00,,---,0.00,VWS V15.00,2014-01-02 01:08:00,
2014-01-01 18:13:00,57.1,31.8,30.09,WSW,252,0.0,0.0,38,0.00,,---,0.00,VWS V15.00,2014-01-02 01:13:00,
2014-01-01 18:18:00,55.9,31.3,30.09,WSW,252,0.0,0.0,39,0.00,,---,0.00,VWS V15.00,2014-01-02 01:18:00,
2014-01-01 18:23:00,55.0,32.9,30.09,WSW,252,0.0,1.0,43,0.00,,---,0.00,VWS V15.00,2014-01-02 01:23:00,
2014-01-01 18:28:00,54.6,32.6,30.09,WSW,252,0.0,0.0,43,0.00,,---,0.00,VWS V15.00,2014-01-02 01:28:00,
2014-01-01 18:33:00,54.0,33.2,30.10,WSW,252,0.0,0.0,45,0.00,,---,0.00,VWS V15.00,2014-01-02 01:33:00,
2014-01-01 18:38:00,53.4,33.2,30.10,WSW,252,0.0,0.0,46,0.00,,---,0.00,VWS V15.00,2014-01-02 01:38:00,
2014-01-01 18:43:00,52.7,33.0,30.10,WSW,252,0.0,0.0,47,0.00,,---,0.00,VWS V15.00,2014-01-02 01:43:00,
2014-01-01 18:48:00,52.0,33.5,30.10,WSW,252,0.0,1.0,49,0.00,,---,0.00,VWS V15.00,2014-01-02 01:48:00,
2014-01-01 18:53:00,51.9,33.4,30.10,WSW,252,0.0,1.0,49,0.00,,---,0.00,VWS V15.00,2014-01-02 01:53:00,
2014-01-01 18:58:00,52.3,32.7,30.11,WSW,252,0.0,0.0,47,0.00,,---,0.00,VWS V15.00,2014-01-02 01:58:00,
2014-01-01 19:03:00,52.3,32.7,30.11,WSW,252,0.0,0.0,47,0.00,,---,0.00,VWS V15.00,2014-01-02 02:03:00,
2014-01-01 19:08:00,51.9,32.3,30.11,WSW,252,1.0,1.0,47,0.00,,---,0.00,VWS V15.00,2014-01-02 02:08:00,
2014-01-01 19:13:00,51.8,32.2,30.11,WSW,252,0.0,0.0,47,0.00,,---,0.00,VWS V15.00,2014-01-02 02:13:00,
2014-01-01 19:18:00,51.8,31.7,30.11,NE,54,0.0,2.0,46,0.00,,---,0.00,VWS V15.00,2014-01-02 02:18:00,
2014-01-01 19:23:00,52.0,31.9,30.11,NE,54,0.0,0.0,46,0.00,,---,0.00,VWS V15.00,2014-01-02 02:23:00,
2014-01-01 19:28:00,51.9,31.8,30.12,East,86,0.0,1.0,46,0.00,,---,0.00,VWS V15.00,2014-01-02 02:28:00,
2014-01-01 19:33:00,52.0,31.3,30.11,East,90,0.0,1.0,45,0.00,,---,0.00,VWS V15.00,2014-01-02 02:33:00,
2014-01-01 19:38:00,52.3,31.0,30.11,East,96,0.0,0.0,44,0.00,,---,0.00,VWS V15.00,2014-01-02 02:38:00,
2014-01-01 19:43:00,52.3,31.0,30.12,East,94,0.0,0.0,44,0.00,,---,0.00,VWS V15.00,2014-01-02 02:43:00,
2014-01-01 19:48:00,52.4,31.1,30.12,East,94,0.0,0.0,44,0.00,,---,0.00,VWS V15.00,2014-01-02 02:48:00,
2014-01-01 19:53:00,52.1,31.4,30.12,East,94,0.0,0.0,45,0.00,,---,0.00,VWS V15.00,2014-01-02 02:53:00,
2014-01-01 19:58:00,51.4,31.3,30.12,East,94,0.0,0.0,46,0.00,,---,0.00,VWS V15.00,2014-01-02 02:58:00,
2014-01-01 20:03:00,51.0,31.0,30.12,East,94,0.0,0.0,46,0.00,,---,0.00,VWS V15.00,2014-01-02 03:03:00,
2014-01-01 20:08:00,50.7,32.2,30.12,East,94,0.0,0.0,49,0.00,,---,0.00,VWS V15.00,2014-01-02 03:08:00,
2014-01-01 20:13:00,50.6,31.6,30.12,East,94,0.0,0.0,48,0.00,,---,0.00,VWS V15.00,2014-01-02 03:13:00,
2014-01-01 20:18:00,50.3,32.4,30.13,East,94,0.0,0.0,50,0.00,,---,0.00,VWS V15.00,2014-01-02 03:18:00,
2014-01-01 20:23:00,49.7,31.8,30.13,East,94,0.0,0.0,50,0.00,,---,0.00,VWS V15.00,2014-01-02 03:23:00,
2014-01-01 20:28:00,48.9,32.5,30.13,East,94,0.0,0.0,53,0.00,,---,0.00,VWS V15.00,2014-01-02 03:28:00,
2014-01-01 20:33:00,48.2,32.8,30.13,East,94,0.0,0.0,55,0.00,,---,0.00,VWS V15.00,2014-01-02 03:33:00,
2014-01-01 20:38:00,47.5,33.0,30.13,East,94,0.0,0.0,57,0.00,,---,0.00,VWS V15.00,2014-01-02 03:38:00,
2014-01-01 20:43:00,47.1,33.5,30.14,East,94,0.0,0.0,59,0.00,,---,0.00,VWS V15.00,2014-01-02 03:43:00,
2014-01-01 20:48:00,46.7,33.6,30.14,East,94,0.0,0.0,60,0.00,,---,0.00,VWS V15.00,2014-01-02 03:48:00,
2014-01-01 20:53:00,46.4,33.7,30.14,East,94,0.0,0.0,61,0.00,,---,0.00,VWS V15.00,2014-01-02 03:53:00,
2014-01-01 20:58:00,46.3,33.6,30.14,ENE,65,0.0,1.0,61,0.00,,---,0.00,VWS V15.00,2014-01-02 03:58:00,
2014-01-01 21:03:00,46.1,33.0,30.14,ENE,65,0.0,0.0,60,0.00,,---,0.00,VWS V15.00,2014-01-02 04:03:00,
2014-01-01 21:08:00,45.8,33.1,30.14,ENE,65,0.0,0.0,61,0.00,,---,0.00,VWS V15.00,2014-01-02 04:08:00,
2014-01-01 21:13:00,45.5,33.2,30.14,ENE,65,0.0,0.0,62,0.00,,---,0.00,VWS V15.00,2014-01-02 04:13:00,
2014-01-01 21:18:00,45.1,32.9,30.15,ENE,65,0.0,0.0,62,0.00,,---,0.00,VWS V15.00,2014-01-02 04:18:00,
2014-01-01 21:23:00,44.9,32.3,30.15,ENE,65,0.0,0.0,61,0.00,,---,0.00,VWS V15.00,2014-01-02 04:23:00,
2014-01-01 21:28:00,45.0,32.4,30.15,ENE,65,0.0,0.0,61,0.00,,---,0.00,VWS V15.00,2014-01-02 04:28:00,
2014-01-01 21:33:00,45.1,32.5,30.15,ENE,65,0.0,0.0,61,0.00,,---,0.00,VWS V15.00,2014-01-02 04:33:00,
2014-01-01 21:38:00,45.3,31.8,30.15,ENE,76,0.0,0.0,59,0.00,,---,0.00,VWS V15.00,2014-01-02 04:38:00,
2014-01-01 21:43:00,45.7,32.2,30.15,ENE,76,0.0,0.0,59,0.00,,---,0.00,VWS V15.00,2014-01-02 04:43:00,
2014-01-01 21:48:00,45.8,32.3,30.15,ENE,76,0.0,0.0,59,0.00,,---,0.00,VWS V15.00,2014-01-02 04:48:00,
2014-01-01 21:53:00,45.9,31.5,30.15,ENE,76,0.0,0.0,57,0.00,,---,0.00,VWS V15.00,2014-01-02 04:53:00,
2014-01-01 21:58:00,46.5,30.8,30.15,ENE,76,0.0,0.0,54,0.00,,---,0.00,VWS V15.00,2014-01-02 04:58:00,
2014-01-01 22:01:00,46.9,31.1,30.15,ENE,76,0.0,0.0,54,0.00,,---,0.00,VWS V15.00,2014-01-02 05:01:00,
2014-01-01 22:06:00,47.3,31.5,30.15,ENE,65,0.0,0.0,54,0.00,,---,0.00,VWS V15.00,2014-01-02 05:06:00,
2014-01-01 22:11:00,47.5,31.7,30.15,ENE,65,0.0,0.0,54,0.00,,---,0.00,VWS V15.00,2014-01-02 05:11:00,
2014-01-01 22:16:00,47.7,31.9,30.15,ENE,65,0.0,0.0,54,0.00,,---,0.00,VWS V15.00,2014-01-02 05:16:00,
2014-01-01 22:21:00,47.6,31.8,30.15,ENE,65,0.0,0.0,54,0.00,,---,0.00,VWS V15.00,2014-01-02 05:21:00,
2014-01-01 22:26:00,47.3,31.5,30.15,ENE,65,0.0,0.0,54,0.00,,---,0.00,VWS V15.00,2014-01-02 05:26:00,
2014-01-01 22:31:00,47.0,31.7,30.15,ENE,65,0.0,0.0,55,0.00,,---,0.00,VWS V15.00,2014-01-02 05:31:00,
2014-01-01 22:36:00,46.3,31.9,30.15,ENE,65,0.0,0.0,57,0.00,,---,0.00,VWS V15.00,2014-01-02 05:36:00,
2014-01-01 22:41:00,45.6,32.1,30.15,ENE,65,0.0,0.0,59,0.00,,---,0.00,VWS V15.00,2014-01-02 05:41:00,
2014-01-01 22:46:00,45.0,32.4,30.15,ENE,65,0.0,0.0,61,0.00,,---,0.00,VWS V15.00,2014-01-02 05:46:00,
2014-01-01 22:51:00,44.6,32.4,30.15,ENE,65,0.0,0.0,62,0.00,,---,0.00,VWS V15.00,2014-01-02 05:51:00,
2014-01-01 22:56:00,44.5,32.7,30.15,ENE,65,0.0,0.0,63,0.00,,---,0.00,VWS V15.00,2014-01-02 05:56:00,
2014-01-01 23:01:00,44.4,32.6,30.15,ENE,65,0.0,0.0,63,0.00,,---,0.00,VWS V15.00,2014-01-02 06:01:00,
2014-01-01 23:06:00,44.0,32.6,30.15,ENE,65,0.0,0.0,64,0.00,,---,0.00,VWS V15.00,2014-01-02 06:06:00,
2014-01-01 23:11:00,43.5,32.9,30.15,ENE,65,0.0,0.0,66,0.00,,---,0.00,VWS V15.00,2014-01-02 06:11:00,
2014-01-01 23:16:00,43.4,32.8,30.15,ENE,65,0.0,0.0,66,0.00,,---,0.00,VWS V15.00,2014-01-02 06:16:00,
2014-01-01 23:21:00,43.3,32.7,30.15,ENE,65,0.0,0.0,66,0.00,,---,0.00,VWS V15.00,2014-01-02 06:21:00,
2014-01-01 23:26:00,42.9,32.7,30.15,ENE,65,0.0,0.0,67,0.00,,---,0.00,VWS V15.00,2014-01-02 06:26:00,
2014-01-01 23:31:00,42.5,32.7,30.15,ENE,65,0.0,0.0,68,0.00,,---,0.00,VWS V15.00,2014-01-02 06:31:00,
2014-01-01 23:36:00,42.2,32.4,30.16,ENE,65,0.0,0.0,68,0.00,,---,0.00,VWS V15.00,2014-01-02 06:36:00,
2014-01-01 23:41:00,41.8,32.4,30.16,ENE,65,0.0,0.0,69,0.00,,---,0.00,VWS V15.00,2014-01-02 06:41:00,
2014-01-01 23:46:00,41.4,31.6,30.16,ENE,65,0.0,0.0,68,0.00,,---,0.00,VWS V15.00,2014-01-02 06:46:00,
2014-01-01 23:51:00,41.2,31.8,30.16,ENE,65,0.0,0.0,69,0.00,,---,0.00,VWS V15.00,2014-01-02 06:51:00,
2014-01-01 23:56:00,41.2,31.8,30.16,ENE,65,0.0,0.0,69,0.00,,---,0.00,VWS V15.00,2014-01-02 06:56:00,